{"data":{"norad_id":67410,"epoch":"2026-09-19T07:24:12.413664Z","epoch_age_seconds":178190,"freshness":"STALE","line1":"1 67410U 26005G   26262.30847701  .00016432  00000+0  60507-3 0  9995","line2":"2 67410  42.9998 224.9068 0001430 270.8109  89.2579 15.27594194 38308","mean_motion":15.27594194,"eccentricity":0.000143,"inclination_deg":42.9998,"raan_deg":224.9068,"arg_perigee_deg":270.8109,"mean_anomaly_deg":89.2579,"bstar":0.00060507,"rev_number":3830,"period_min":94.26587281203,"perigee_km":482.02545089248,"apogee_km":483.98773796049,"semimajor_km":6861.1435944265,"source":"CELESTRAK","updated_at":"2026-09-20T09:00:43.519849Z"}}